Flag for Norway Weather past 2 weeks in Kleppe, Norway

Now
62 °F

Overcast.


Feels Like: 62 °F
Forecast: 59 / 64 °F
Wind: 1 mph from South

Location: Stavanger / Sola

Current Time: Jul 30, 2014 at 1:45:32 AM

Latest Report: Jul 30, 2014 at 1:00 AM


Visibility: 14 mi

Pressure: 29.78 "Hg

Humidity: 91%

Dew point: 59 °F

Location of KleppeLocation

Historic Weather in Kleppe — Graph

°F

Kleppe temperature yesterday

Maximum temperature yesterday: 69 °F (at 1:00 PM)
Minimum temperature yesterday: 64 °F (at 11:00 PM)
Average temperature yesterday: 67 °F

Past Weeks' High & Low Weather Summary

 TemperatureHumidityPressure
High84 °F (Jul 20, 3:00 PM)96% (Jul 28, 6:00 AM)30.32 "Hg (Jul 28, 6:00 AM)
Low56 °F (Jul 19, 5:00 AM)37% (Jul 20, 2:00 PM)29.75 "Hg (Jul 15, 10:00 AM)
Average69 °F70%30.06 "Hg
* Reported Midnight between Jul 14 and Jul 15 — Midnight between Jul 29 and Jul 30, Kleppe, Weather by CustomWeather, © 2014

Note: Actual official high and low records may vary slightly from our data, if they occured in-between our weather recording intervals... More about our weather records

Advertising

Kleppe weather history for previous 24 hours

 ConditionsComfort  
Time TempWeatherWind HumidityBarometerVisibility
12:00 AM
Jul 30
62 °FOvercast.1 mph90%29.79 "Hg22 mi
11:00 PM
Jul 29
64 °FOvercast.3 mph86%29.80 "Hg22 mi
10:00 PM65 °FScattered clouds.2 mph74%29.80 "Hg31 mi
9:00 PM66 °FPartly sunny.1 mph70%29.81 "Hg31 mi
8:00 PM66 °FOvercast.2 mph69%29.83 "Hg25 mi
7:00 PM66 °FOvercast.5 mph70%29.85 "Hg31 mi
6:00 PM67 °FPartly sunny.6 mph67%29.86 "Hg25 mi
5:00 PM67 °FPartly sunny.5 mph68%29.86 "Hg25 mi
4:00 PM68 °FOvercast.5 mph65%29.88 "Hg25 mi
3:00 PM68 °FPartly sunny.6 mph64%29.88 "Hg22 mi
2:00 PM69 °FPassing clouds.6 mph64%29.88 "Hg25 mi
1:00 PM69 °FScattered clouds.7 mph66%29.89 "Hg17 mi
12:00 PM67 °FPartly sunny.7 mph75%29.90 "Hg18 mi
11:00 AM67 °FPartly sunny.7 mph76%29.89 "Hg19 mi
10:00 AM68 °FScattered clouds.7 mph75%29.90 "Hg19 mi
9:00 AM67 °FPartly sunny.6 mph74%29.90 "Hg22 mi
8:00 AM68 °FPartly sunny.3 mph75%29.90 "Hg22 mi
7:00 AM67 °FPartly sunny.3 mph78%29.90 "Hg17 mi
6:00 AM65 °FPartly sunny.3 mph80%29.92 "Hg22 mi
5:00 AM66 °FOvercast.3 mph81%29.93 "Hg22 mi
4:00 AM66 °FOvercast.5 mph80%29.94 "Hg22 mi
3:00 AM66 °FOvercast.6 mph79%29.95 "Hg22 mi
2:00 AM66 °FOvercast.6 mph77%29.96 "Hg22 mi
1:00 AM67 °FOvercast.5 mph80%29.96 "Hg17 mi
Weather by CustomWeather, © 2014

See weather overviewHow to use our weather pages